Tracking 30918 objects as of 2-Jul-2025
HD Live streaming from Space Station
objects crossing your sky now

ONEWEB-0446

Track ONEWEB-0446 now!
10-day predictions
ONEWEB-0446 is classified as:


NORAD ID: 51640
Int'l Code: 2022-012U
Perigee: 1,227.2 km
Apogee: 1,230.5 km
Inclination: 87.9 °
Period: 109.9 minutes
Semi major axis: 7599 km
RCS: Unknown
Launch date: February 10, 2022
Source: United Kingdom (UK)
Launch site: FRENCH GUIANA (FRGUI)
Your satellite tracking list
Your tracking list is empty




NASA's NSSDC Master Catalog

Two Line Element Set (TLE):
1 51640U 22012U   25182.84249652  .00000488  00000-0  13614-2 0  9998
2 51640  87.8832 106.1582 0002120  72.1959 287.9399 13.10375638163447
Source of the keplerian elements: AFSPC